Weather History for Newburgh, NY

Change the Weather History Date:

Wednesday, September 19, 2012

  Actual Average Record
Temperature  
Mean Temperature 60 °F -  
Max Temperature 66 °F 70 °F 84 °F (2005)
Min Temperature 53 °F 50 °F 34 °F (1973)
Degree Days  
Heating Degree Days 6    
Growing Degree Days 10 (Base 50)    
Moisture  
Dew Point 50 °F    
Average Humidity 72    
Maximum Humidity 100    
Minimum Humidity 43    
Precipitation  
Precipitation 0.00 in - - ()
Sea Level Pressure  
Sea Level Pressure 30.02 in    
Wind  
Wind Speed 10 mph (NW)    
Max Wind Speed 17 mph    
Max Gust Speed 29 mph    
Visibility 15 miles    
Events Rain    
Averages and records for this station are not official NWS values.
T = Trace of Precipitation, MM = Missing Value Source: NWS Daily Summary

Daily Weather History Graph

Daily Weather History Graph

Search for Another Location

Airport:

Trip Planner

Search our weather history database for the weather conditions in past years. The results will help you decide how hot, cold, wet, or windy it might be!

Date:

Astronomy

Sep. 19, 2012 Rise Set
Actual Time 6:41 AM EDT 6:58 PM EDT
Civil Twilight 6:13 AM EDT 7:25 PM EDT
Nautical Twilight 5:40 AM EDT 7:58 PM EDT
Astronomical Twilight 5:07 AM EDT 8:31 PM EDT
Moon 10:52 AM EDT (9/19) 9:01 PM EDT (9/19)
Length of Visible Light 13h 12m
Length of Day
12h 16m
Waxing Crescent, 17% of the Moon is Illuminated
Sep 19
Waxing Crescent
Sep 22
First Quarter
Sep 29
Full
Oct 8
Last Quarter
Oct 15
New

Hourly Weather History & Observations

Time (EDT) Temp. Dew Point Humidity Pressure Visibility Wind Dir Wind Speed Gust Speed Precip Events Conditions
12:45 AM 66.2 °F 64.4 °F 94% 29.74 in 10.0 mi SW 5.8 mph - N/A   Mostly Cloudy
1:45 AM 62.6 °F 60.8 °F 94% 29.77 in 5.0 mi NW 17.3 mph 28.8 mph N/A Rain Light Rain
2:45 AM 59.0 °F 57.2 °F 94% 29.81 in 6.0 mi WNW 17.3 mph 28.8 mph N/A   Overcast
3:45 AM 57.2 °F 51.8 °F 82% 29.84 in 10.0 mi WNW 13.8 mph - N/A   Overcast
4:45 AM 57.2 °F 50.0 °F 77% 29.86 in 10.0 mi WNW 13.8 mph - N/A   Overcast
5:45 AM 57.2 °F 57.2 °F 100% 29.90 in 10.0 mi NW 6.9 mph - N/A   Overcast
6:55 AM 55.4 °F 48.2 °F 77% 29.94 in 20.0 mi NW 8.1 mph - N/A   Overcast
7:45 AM 57.2 °F 50.0 °F 77% 29.97 in 20.0 mi NW 9.2 mph - N/A   Scattered Clouds
8:45 AM 57.2 °F 50.0 °F 77% 29.99 in 20.0 mi NW 8.1 mph - N/A   Mostly Cloudy
9:45 AM 60.8 °F 48.2 °F 63% 30.01 in 20.0 mi NNW 9.2 mph - N/A   Scattered Clouds
11:50 AM 62.6 °F 44.6 °F 52% 30.06 in 20.0 mi North 15.0 mph 19.6 mph N/A   Scattered Clouds
12:45 PM 64.4 °F 44.6 °F 49% 30.07 in 20.0 mi NNW 12.7 mph 19.6 mph N/A   Scattered Clouds
1:45 PM 66.2 °F 42.8 °F 43% 30.07 in 20.0 mi NNW 8.1 mph 20.7 mph N/A   Scattered Clouds
4:50 PM 66.2 °F 44.6 °F 46% 30.10 in 20.0 mi NNW 9.2 mph - N/A   Scattered Clouds
5:50 PM 64.4 °F 46.4 °F 52% 30.12 in 20.0 mi Variable 6.9 mph - N/A   Scattered Clouds
6:45 PM 60.8 °F 50.0 °F 68% 30.14 in 20.0 mi Variable 6.9 mph - N/A   Scattered Clouds
7:45 PM 57.2 °F 46.4 °F 67% 30.16 in 10.0 mi Variable 6.9 mph - N/A   Scattered Clouds
8:45 PM 57.2 °F 46.4 °F 67% 30.18 in 10.0 mi Variable 5.8 mph - N/A   Scattered Clouds
9:45 PM 55.4 °F 48.2 °F 77% 30.20 in 10.0 mi Variable 5.8 mph - N/A   Partly Cloudy
10:45 PM 53.6 °F 46.4 °F 77% 30.20 in 20.0 mi ENE 6.9 mph - N/A   Partly Cloudy
11:45 PM 53.6 °F 46.4 °F 77% 30.22 in 20.0 mi East 8.1 mph - N/A   Scattered Clouds